Theta_e
280 280 280 280 281 281 280 280 280 279 279 279 279 279 280 279 279 279 279 280 280 280 281 281 282 284 285 286 285 285 285 283 283 286 286 285 283 283 284 285 287 287 289
280 280 279 279 279 279 279 280 279 279 280 279 279 278 278 279 278 278 277 278 278 279 280 280 280 282 282 284 284 284 284 285 284 283 286 285 282 283 283 284 285 286 286
280 279 279 279 278 278 279 279 279 278 278 278 279 278 278 278 277 277 277 277 277 278 278 279 280 281 280 281 282 283 283 285 284 283 283 285 284 281 282 282 283 284 285
279 278 278 278 278 278 278 278 277 277 277 277 277 277 277 277 277 277 277 277 277 277 278 278 279 279 280 280 281 281 282 282 283 282 282 283 284 283 281 281 281 282 284
277 278 277 278 278 277 277 276 276 275 275 275 274 274 275 275 276 276 277 277 277 277 277 278 278 278 281 281 280 281 282 281 281 281 280 281 282 281 280 282 282 284 283
277 277 277 276 276 275 274 273 272 272 272 271 272 271 271 273 276 277 277 275 276 277 276 277 277 277 278 281 282 283 283 281 281 281 280 280 280 282 283 283 283 282 280
276 274 275 273 271 271 271 270 270 269 269 269 269 269 268 269 273 275 275 273 272 272 273 274 276 277 277 276 278 280 280 282 283 281 280 281 282 283 283 282 282 282 282
272 270 271 270 268 269 268 268 267 267 267 266 266 266 267 268 271 272 273 271 270 270 271 271 272 272 274 275 275 274 275 276 277 279 280 281 282 284 285 285 284 284 284
272 271 269 267 265 266 263 265 265 264 264 264 265 265 264 264 269 271 271 269 269 269 270 270 271 271 273 275 273 272 272 273 277 280 281 283 285 287 287 285 283 281 280
270 269 268 267 261 261 263 262 263 262 264 264 264 263 263 262 267 269 270 268 267 268 269 270 272 271 274 276 273 272 271 272 274 274 276 278 281 282 286 285 284 282 281
267 267 266 264 261 261 261 262 261 260 262 260 261 261 262 263 263 269 271 269 268 267 268 269 270 273 274 275 275 272 271 273 273 273 274 276 278 279 281 282 284 284 283
266 264 261 258 258 260 256 258 258 258 258 258 259 260 262 263 266 268 271 272 273 269 268 269 270 273 274 275 275 276 277 278 274 272 272 273 274 276 280 282 282 283 284
261 255 254 257 258 259 255 258 258 258 258 258 259 259 261 263 264 269 271 272 273 271 271 272 275 276 276 276 275 275 274 271 269 268 268 269 271 274 278 281 282 282 282
257 258 258 256 257 257 259 260 258 257 258 259 259 259 261 264 266 268 268 268 271 272 272 271 272 274 276 275 273 273 272 271 270 269 269 270 272 273 273 277 280 280 280
258 258 257 257 255 258 259 259 260 261 262 263 265 265 265 265 267 272 272 271 271 273 273 272 271 271 271 271 269 268 268 268 268 269 269 269 270 271 272 274 280 280 279
257 258 257 257 258 259 258 258 264 266 268 270 270 269 268 270 272 273 273 274 274 274 268 264 264 265 265 266 267 268 270 270 270 269 269 270 270 270 272 275 280 280 278
254 256 257 257 257 257 257 257 256 260 266 266 268 268 269 270 271 272 272 272 269 268 259 260 261 262 263 264 264 265 266 269 270 269 269 270 271 271 276 278 278 279 278
250 254 253 254 254 255 256 256 256 255 255 257 262 265 267 269 270 270 269 265 258 260 259 259 259 260 261 262 262 264 265 267 269 269 270 270 271 274 275 275 275 275 277
250 252 252 252 253 254 254 254 254 254 254 255 257 260 261 266 268 267 266 255 257 257 258 258 259 259 260 261 263 265 267 268 268 267 268 270 272 274 275 277 278 277 277
250 252 254 250 250 250 251 251 253 252 253 254 255 255 258 261 257 257 258 258 258 258 259 258 259 259 260 261 262 264 265 267 269 268 269 270 272 273 274 275 277 277 276
249 248 252 248 247 247 248 250 252 252 252 253 254 255 266 257 255 256 256 257 258 259 259 259 259 260 261 262 263 263 265 266 268 270 271 272 274 273 275 276 275 275 275
248 247 245 245 248 249 250 252 250 249 251 251 253 254 262 251 252 254 255 256 258 259 260 260 260 261 261 262 263 263 264 265 266 267 269 270 272 272 273 273 273 273 272
249 246 247 248 249 252 253 251 247 248 249 249 250 252 252 252 253 253 254 255 256 258 259 260 260 261 262 263 265 265 264 265 266 267 267 266 266 265 266 268 267 268 268
249 249 251 252 252 252 251 249 248 250 249 248 248 249 250 251 251 252 253 254 255 256 257 258 259 260 260 262 265 267 267 267 266 266 267 267 267 267 267 267 268 267 268
254 253 253 253 253 252 250 249 249 246 246 247 248 247 249 250 251 251 252 253 254 254 256 257 258 258 259 260 263 266 269 268 266 266 266 266 265 265 265 266 266 266 266
254 254 254 253 252 251 249 247 247 246 246 248 247 247 249 250 251 251 251 252 253 253 254 256 257 256 257 260 262 268 269 270 266 265 265 265 264 264 264 264 264 264 264
Wind_Speed
5 4 6 4 5 4 4 4 5 4 5 6 7 7 7 7 7 7 8 9 10 9 6 5 8 6 5 5 4 5 7 5 11 10 6 5 5 6 7 7 9 9 10
4 4 4 5 5 5 5 6 6 7 6 6 7 7 8 8 6 6 7 7 10 11 11 10 10 6 7 7 6 8 7 8 8 15 12 6 7 7 6 8 8 8 10
2 4 6 6 7 7 7 7 7 8 9 9 9 10 10 10 10 9 9 10 8 10 10 11 12 10 10 8 7 8 7 7 8 9 11 8 6 4 6 6 6 8 6
3 2 1 2 4 4 5 6 6 6 7 7 8 9 10 11 11 11 11 11 10 11 11 10 11 11 12 11 10 10 9 9 9 10 10 9 8 4 4 4 6 5 9
4 3 1 2 2 2 3 3 4 6 7 9 11 11 11 11 9 13 14 15 15 15 14 14 13 13 19 19 11 12 12 10 9 10 11 9 9 6 6 5 8 8 8
4 2 2 3 4 5 6 8 9 9 10 10 10 11 12 9 21 25 22 16 17 16 17 16 14 15 16 25 25 26 21 14 15 12 12 14 14 7 6 9 9 8 9
4 2 3 4 5 6 8 8 9 10 11 11 11 12 13 13 22 25 26 15 16 16 17 16 15 12 15 14 19 26 25 26 29 19 20 18 17 13 7 10 12 11 13
3 3 4 4 4 6 7 8 9 9 10 11 12 13 13 12 24 26 27 17 15 16 16 16 17 17 16 18 17 17 18 19 19 15 18 20 18 16 13 13 13 14 12
3 3 2 2 3 6 7 9 9 10 10 10 11 12 13 13 24 26 24 15 14 15 14 15 15 16 21 26 19 18 20 20 21 33 35 38 37 34 27 12 13 12 14
3 1 1 1 2 4 7 8 7 7 11 10 12 12 14 14 22 24 22 12 14 12 13 14 20 19 26 26 17 14 17 16 15 16 17 23 28 25 31 23 16 17 13
2 1 1 1 3 5 6 6 8 8 10 10 12 11 13 13 15 24 25 14 12 12 12 11 10 25 28 27 27 15 17 20 21 18 16 16 15 18 16 16 19 17 15
1 2 3 4 5 5 5 7 6 7 8 9 10 10 9 11 18 21 26 27 25 15 13 12 13 27 29 29 25 29 33 29 12 11 12 14 13 14 15 16 18 16 15
2 4 3 5 6 6 5 8 6 6 6 8 8 10 10 10 11 25 27 28 27 18 13 20 32 32 33 26 26 29 26 13 12 13 14 15 15 15 18 17 17 18 17
3 5 5 5 5 5 5 6 6 6 6 8 9 10 10 10 10 10 12 13 21 18 20 16 21 27 30 26 18 17 12 12 13 14 15 15 14 14 16 17 14 11 12
4 5 4 4 5 6 6 6 6 7 9 10 9 10 11 11 11 24 22 14 13 17 21 12 11 11 11 9 9 11 11 12 13 13 14 14 14 14 17 17 14 12 13
4 4 3 4 4 5 5 7 13 16 19 21 22 16 9 22 28 28 28 29 29 29 12 10 11 10 11 12 12 13 12 14 12 12 13 14 14 16 18 15 12 12 9
5 4 4 5 4 5 5 5 8 15 19 14 15 19 22 22 26 27 27 26 24 19 6 9 10 10 11 11 12 13 14 13 13 12 12 13 13 15 14 15 5 7 10
4 6 3 4 4 4 4 5 5 5 10 12 13 17 19 22 24 23 23 18 10 9 7 9 11 11 11 12 12 13 13 13 11 9 10 10 13 13 8 7 6 9 10
4 4 4 3 4 4 4 4 4 5 7 9 11 13 13 21 20 19 19 3 8 9 9 9 9 10 11 12 12 13 14 13 10 8 10 9 10 11 10 5 7 14 14
4 7 6 3 3 3 3 3 4 4 6 7 7 7 11 8 9 10 8 8 8 8 8 9 10 10 11 11 12 12 12 14 9 8 9 9 9 9 11 8 7 6 7
3 3 5 3 3 3 3 3 4 4 5 6 7 7 20 7 8 8 9 9 9 9 10 9 10 10 10 11 11 12 11 11 12 8 10 9 9 9 10 10 7 7 6
3 4 3 4 3 3 3 4 3 4 5 6 6 7 18 3 4 7 8 9 9 9 9 9 9 9 10 11 11 11 12 12 11 10 9 6 4 4 2 1 1 2 5
4 3 3 3 3 4 3 3 3 3 5 5 5 6 6 5 6 7 8 9 9 10 9 9 10 10 10 11 10 9 10 11 10 9 8 6 5 4 4 3 3 4 4
3 4 4 3 2 3 3 3 3 5 5 5 5 5 6 6 7 8 8 8 9 9 9 9 9 13 13 12 11 10 8 9 9 9 10 6 5 5 5 5 5 6 6
3 4 4 4 3 4 3 4 4 4 5 4 5 4 5 6 7 7 7 7 8 9 10 10 8 12 14 18 17 19 13 12 11 12 7 7 7 8 6 6 6 7 7
3 4 4 3 4 4 4 4 4 4 5 5 5 4 5 6 7 7 7 8 8 9 11 9 11 13 16 13 16 19 20 14 12 14 8 7 6 6 6 8 9 7 8
Wind_Direction
90 81 75 64 48 38 31 7 1 337 348 339 334 333 334 328 322 324 321 322 326 322 316 294 287 279 281 281 259 249 259 244 262 280 258 238 253 250 254 230 232 231 236
131 108 72 53 31 21 9 360 351 342 342 326 328 329 327 318 304 302 300 310 307 308 309 304 297 294 280 269 263 260 252 252 261 274 278 263 227 233 234 246 240 236 234
29 30 20 10 2 352 342 341 343 339 334 327 331 327 322 319 319 311 302 297 289 290 290 288 290 293 291 289 276 275 265 257 252 258 270 275 268 216 241 244 233 241 245
195 185 210 316 298 295 310 319 320 317 310 312 313 309 309 310 309 305 301 302 297 293 287 277 278 277 278 281 283 280 277 271 265 259 265 264 263 240 235 237 242 217 240
175 162 235 291 293 312 325 333 329 327 328 326 321 314 314 314 309 311 310 305 299 290 281 280 279 276 278 281 281 278 276 273 274 274 272 267 258 240 232 241 248 249 227
144 108 12 15 21 12 355 342 337 335 331 324 319 316 315 312 315 311 306 298 296 294 294 293 289 286 284 285 284 285 280 278 274 271 271 268 263 249 243 244 246 247 260
116 94 74 44 15 354 343 338 333 326 322 319 316 316 314 311 311 312 310 302 299 295 293 293 293 291 292 289 289 286 287 285 278 277 273 267 271 260 248 245 242 239 244
102 81 58 34 353 338 334 327 320 318 316 315 314 311 305 308 312 310 307 300 297 295 294 293 291 292 289 291 290 284 279 274 269 273 268 271 269 274 253 249 245 249 253
132 126 86 28 330 328 318 312 310 309 308 306 302 306 303 300 305 306 309 300 293 293 291 287 287 289 292 290 284 281 277 274 276 274 274 274 274 266 259 260 240 240 247
153 84 20 316 278 283 290 296 295 291 294 301 299 299 294 292 299 304 306 294 293 293 291 289 285 286 286 291 291 287 284 286 288 282 270 268 272 267 260 247 247 244 239
68 36 308 292 274 269 274 278 283 285 291 293 292 291 284 282 287 300 301 296 291 286 281 282 282 287 291 289 286 280 276 279 277 278 280 277 275 258 249 242 241 238 240
326 318 312 294 293 288 271 279 275 280 284 290 291 287 281 286 287 292 296 297 295 295 291 282 277 280 283 280 276 270 273 282 288 291 281 276 281 274 258 241 235 236 234
291 292 288 287 284 278 275 287 297 280 281 291 290 289 290 290 282 285 290 293 288 283 278 276 281 284 282 288 293 288 287 276 270 267 266 269 268 270 278 260 231 226 232
247 271 268 254 277 265 271 275 275 277 285 285 284 283 288 284 289 294 285 281 278 279 279 278 271 273 270 266 270 270 268 265 263 263 263 265 267 266 257 268 244 222 219
250 267 257 260 258 275 262 269 268 267 273 282 289 296 302 306 302 303 312 310 304 297 302 301 302 301 298 280 258 256 257 256 253 253 257 263 262 261 255 259 232 219 220
257 271 256 278 275 281 288 292 290 298 303 305 306 308 309 310 312 317 314 310 317 326 323 321 308 303 297 297 295 288 278 270 257 256 258 263 265 265 252 253 226 207 210
229 259 271 273 273 278 291 296 310 318 316 315 316 325 321 321 325 322 330 328 342 333 319 310 302 303 305 302 297 290 286 277 270 261 262 262 269 278 252 238 223 202 210
227 253 243 255 259 265 271 283 291 293 307 314 316 323 325 330 329 343 340 350 331 335 314 312 309 309 306 302 298 290 283 280 269 261 263 264 266 281 235 241 232 228 225
230 240 233 242 248 255 272 278 280 282 280 289 305 321 318 320 336 345 347 318 318 318 319 314 309 307 306 304 302 302 302 284 267 260 262 266 275 293 291 272 248 222 209
239 247 242 234 259 262 252 262 280 274 283 288 295 304 309 319 345 335 332 326 322 316 315 311 310 307 305 307 309 307 311 316 278 254 259 262 268 270 283 275 260 220 200
229 244 244 262 253 244 235 247 268 273 280 281 286 301 314 3 320 319 318 323 322 320 318 316 314 313 312 313 316 318 317 320 331 286 269 270 265 262 258 256 227 205 200
217 231 228 235 249 250 247 260 261 266 275 278 297 300 323 302 295 306 312 315 317 317 316 316 316 316 317 319 318 322 323 325 326 326 323 322 327 338 333 12 95 115 130
210 222 243 248 233 260 269 272 269 267 278 277 287 296 306 304 306 307 309 311 314 315 318 319 319 319 322 321 322 321 324 325 323 325 328 334 345 357 14 41 48 81 107
201 219 239 246 238 252 273 274 273 276 278 281 285 288 292 297 300 300 301 306 310 312 314 316 316 321 323 327 332 330 326 335 333 329 338 343 355 4 29 45 57 82 96
221 235 239 249 258 268 279 270 271 277 275 280 284 282 291 292 294 296 300 304 308 310 311 314 314 321 324 324 325 341 342 357 353 350 346 1 23 29 39 52 60 71 84
228 237 246 250 256 252 254 265 267 269 273 277 269 274 285 293 293 294 302 307 311 311 307 309 309 314 321 322 324 340 348 11 14 5 1 10 21 34 46 58 62 65 73